KOREASAT 7 (42691 NORAD) Tracking and Keplerian Element Data

This shows tracking and keplerian element data for the satellite.

Feedback or suggestion? Click here.




ElementValue
Catalog42691
NameKOREASAT 7
Epoch Orbit2449
Epoch Day12.82066372
Epoch Year2024
RAAN335.1907
Inclination0.0321
Eccentricity8.45E-05
Argument of Perigee261.1277
Mean Anonmoly286.8069
Mean Motion1.00273207
Decay Rate-3.53E-06
L11 42691U 17023A 24012.82066372 -.00000353 00000+0 00000+0 0 9998
L22 42691 0.0321 335.1907 0000845 261.1277 286.8069 1.00273207 24491



Live tracking and technical data element details for KOREASAT 7 (NORAD 42691). KOREASAT 7 can be tracked NOW for your location showing map with azimuth and elevation plus other details from your city location.







IsCatalogInMostPopularTable: catalog: 42691, numindb: 719
Update: records affected: 1



GetName: 42691 KOREASAT 7

Hit Count: updated at: Fri, 19 Apr 2024 13:17:45 GMT